Location: Alulod
(14.2076°N, 120.8898°E)
Time: 03:27:34
(UTC+00:00)

USA 238 DEB - Pass Details

Date: 15 March 2026
Orbit: 883 x 1328 km, 63.4° (Epoch: 10 January)

Event Time Altitude Azimuth Distance (km) Brightness Sun altitude
Rises 21:39:06 0° 333° (NNW) 4,189 6.5 -6.8°
Reaches altitude 10° 21:41:50 10° 332° (NNW) 3,264 6.0 -6.1°
Maximum altitude 21:49:52 78° 247° (WSW) 1,345 4.2 -4.2°
Drops below altitude 10° 21:58:07 10° 162° (SSE) 3,342 6.6 -2.2°
Sets 22:00:56 0° 160° (SSE) 4,294 7.2 -1.5°
